GW7006 Weather Reports


time (UTC)temp
C
wind
direction
speed
KPH
gust
KPH
rain 1hr
cm
rain 24hr
cm
rain mn
cm
humidity
%
barometer
mb
20260505063102 21 27 0.0 0.0 0.00 0.00 0.00 49 1016.8
20260505061552 22 27 0.0 1.6 0.00 0.00 0.00 49 1016.6
20260505060036 21 237 0.0 1.6 0.00 0.00 0.00 48 1016.6
20260505054525 21 330 1.6 4.8 0.00 0.00 0.00 46 1016.5
20260505053018 21 6 1.6 6.4 0.00 0.00 0.00 46 1016.7
20260505051514 21 36 0.0 6.4 0.00 0.00 0.00 47 1016.7
20260505041555 20 24 1.6 4.8 0.00 0.00 0.00 45 1016.3
20260505040029 20 45 1.6 8.0 0.00 0.00 0.00 47 1016.0
20260505034524 20 344 0.0 3.2 0.00 0.00 0.00 47 1016.1
20260505033021 20 358 1.6 8.0 0.00 0.00 0.00 45 1016.2
20260505031518 20 254 0.0 4.8 0.00 0.00 0.00 49 1016.4
20260505030002 18 192 0.0 12.9 0.00 0.00 0.00 51 1016.6
20260505024552 18 145 1.6 11.3 0.00 0.00 0.00 51 1016.7
20260505023045 18 16 1.6 14.5 0.00 0.00 0.00 56 1016.9
20260505021523 18 319 1.6 12.9 0.00 0.00 0.00 56 1017.2
20260505020009 17 216 4.8 14.5 0.00 0.00 0.00 55 1017.3
20260505014558 17 58 4.8 12.9 0.00 0.00 0.00 56 1017.4
20260505013044 17 126 3.2 9.7 0.00 0.00 0.00 60 1017.4
20260505011534 17 90 1.6 9.7 0.00 0.00 0.00 59 1017.7
20260505010016 16 89 4.8 19.3 0.00 0.00 0.00 58 1017.8
20260505004603 16 143 1.6 8.0 0.00 0.00 0.00 65 1018.2
20260505003046 16 66 3.2 9.7 0.00 0.00 0.00 63 1018.0
20260505001545 16 332 1.6 8.0 0.00 0.00 0.00 65 1018.2
20260505000032 15 324 1.6 4.8 0.00 0.00 0.00 67 1018.4
20260504234523 15 208 0.0 4.8 0.00 0.00 0.00 69 1018.4
20260504233022 13 32 0.0 4.8 0.00 0.00 0.00 73 1018.3
20260504231525 13 298 0.0 3.2 0.00 0.00 0.00 74 1018.2
20260504230051 12 236 0.0 4.8 0.00 0.00 0.00 76 1018.3
20260504224544 12 94 0.0 11.3 0.00 0.00 0.00 75 1018.3
20260504223038 11 31 0.0 9.7 0.00 0.00 0.00 79 1018.1
20260504221535 11 349 0.0 4.8 0.00 0.00 0.00 80 1017.7
20260504220034 10 113 0.0 1.6 0.00 0.03 0.00 79 1017.5
20260504214527 10 25 0.0 3.2 0.00 0.03 0.00 80 1017.3
20260504213024 10 309 0.0 1.6 0.00 0.03 0.00 80 1017.2
20260504211522 9 321 0.0 3.2 0.00 0.03 0.00 83 1016.8
20260504210016 8 264 0.0 3.2 0.00 0.03 0.00 82 1016.6
20260504204517 9 330 0.0 4.8 0.00 0.03 0.00 80 1016.7
20260504203020 9 299 0.0 1.6 0.00 0.03 0.00 81 1016.4
20260504201506 9 300 0.0 1.6 0.00 0.03 0.00 82 1016.3
20260504200044 9 307 0.0 1.6 0.00 0.03 0.00 82 1016.3
20260504194548 9 297 0.0 3.2 0.00 0.03 0.00 82 1016.2
20260504193019 10 15 0.0 1.6 0.00 0.03 0.00 82 1015.7
20260504191502 10 6 0.0 6.4 0.00 0.03 0.00 81 1015.7
20260504190117 10 301 0.0 1.6 0.00 0.03 0.00 81 1015.7
20260504184541 10 6 0.0 1.6 0.00 0.03 0.00 81 1015.8
20260504183028 10 347 0.0 3.2 0.00 0.03 0.00 83 1015.6
20260504181514 10 250 0.0 1.6 0.00 0.03 0.00 84 1015.2
20260504180007 10 23 0.0 1.6 0.00 0.03 0.00 84 1015.1
20260504174504 10 345 0.0 1.6 0.00 0.03 0.00 84 1015.2
20260504173003 10 316 0.0 1.6 0.00 0.03 0.00 85 1015.2
20260504171552 10 110 0.0 1.6 0.00 0.03 0.00 84 1015.2
20260504081515 16 240 0.0 4.8 0.00 0.03 0.03 87 1013.8